Theta_e
311 318 326 329 329 327 330 330 330 332 331 333 334 336 336 337 336 335 334 333 333 332 333 332 332 331 331 331 330 329 327 327 327 327 326 328 329 329 327 326 325 320 326
314 320 326 326 325 327 327 327 329 330 331 329 334 335 337 336 334 332 333 333 331 332 332 331 330 328 328 327 326 326 326 325 325 323 323 322 326 326 327 325 324 320 324
316 320 321 326 327 326 326 325 327 329 331 329 333 335 336 334 331 331 332 331 330 330 330 329 327 325 323 323 323 323 324 323 322 321 321 316 319 327 325 323 322 323 323
317 319 321 324 325 325 326 326 325 327 328 331 332 334 333 332 330 330 329 328 328 327 327 326 323 322 321 321 322 321 322 322 320 319 315 316 317 325 324 323 323 321 321
317 320 320 321 323 323 323 322 323 325 327 331 331 333 330 329 328 327 324 324 324 324 323 322 322 320 319 319 319 320 320 318 317 313 313 314 315 321 323 323 320 321 319
315 316 319 319 320 321 321 320 322 322 327 329 331 331 328 327 325 323 323 322 321 321 321 320 319 318 317 317 318 318 317 316 313 307 308 312 312 320 321 320 319 318 318
312 313 313 315 317 318 318 317 319 321 325 327 330 329 328 325 322 322 321 319 319 319 318 318 316 315 315 315 315 315 314 312 305 305 306 308 311 318 318 317 318 318 318
311 313 310 311 312 314 315 315 316 318 321 325 326 325 324 322 321 319 318 317 317 316 316 315 314 313 312 311 311 311 311 309 305 303 304 306 314 317 317 316 316 316 316
311 310 306 303 308 310 310 311 313 315 317 321 322 321 319 317 317 315 315 314 314 313 312 311 310 310 309 308 308 308 307 306 300 301 303 305 313 316 316 315 315 315 315
308 305 302 299 300 301 301 307 309 314 317 317 317 318 317 314 313 312 311 312 312 311 310 308 307 307 306 305 304 304 302 301 296 298 300 304 312 314 314 314 314 313 313
307 304 300 298 297 299 299 302 307 313 315 314 313 314 313 307 305 305 307 308 309 309 308 307 306 304 302 301 301 300 299 292 292 294 297 306 310 312 312 312 312 312 312
303 301 299 296 296 296 300 299 301 306 307 309 308 307 305 302 300 301 303 304 304 305 305 305 304 301 297 292 291 294 289 289 290 291 294 303 307 310 310 311 311 311 311
302 300 298 296 296 296 297 297 298 303 305 306 305 303 303 302 300 299 297 297 296 301 295 296 294 293 292 291 290 289 289 288 287 288 294 300 304 308 309 309 309 310 311
301 300 297 295 295 295 295 296 297 301 303 303 304 305 302 299 297 297 297 296 296 296 294 294 293 292 291 291 290 289 288 287 287 287 290 297 300 305 307 307 308 309 310
301 299 297 295 294 295 295 295 296 297 300 302 302 304 302 299 297 297 296 296 295 296 295 293 293 293 291 291 290 289 288 287 287 287 286 295 297 301 304 305 307 308 309
302 299 297 295 294 295 294 294 294 295 298 300 300 301 303 301 298 297 297 296 295 295 294 293 293 292 291 291 290 290 289 288 287 286 286 286 294 296 300 302 303 306 307
301 300 297 294 294 294 294 294 294 293 297 297 298 300 301 303 300 298 297 295 295 295 294 294 294 294 293 293 291 291 291 289 288 287 286 286 286 292 295 299 299 302 304
301 298 297 296 294 293 293 293 293 293 294 294 296 297 298 301 302 299 297 295 295 295 294 293 293 293 292 291 290 290 289 290 289 288 286 285 285 285 288 295 296 297 301
300 298 294 293 292 293 292 293 293 293 292 293 294 294 295 297 299 300 297 296 296 294 293 293 292 292 291 290 291 290 289 288 288 289 287 286 286 285 284 290 291 292 296
300 297 295 294 292 292 292 292 292 291 291 292 292 293 294 294 296 299 297 296 296 294 293 293 292 292 291 290 294 292 289 288 287 286 286 287 286 285 284 284 282 284 292
299 296 295 293 292 291 290 290 290 289 290 290 291 292 293 293 294 295 297 296 295 294 293 293 292 291 289 290 290 290 290 288 286 286 285 285 285 285 284 283 283 283 284
298 297 295 293 292 291 292 292 292 291 290 290 291 291 292 292 293 294 296 296 295 294 293 292 292 291 289 288 286 289 286 287 286 286 285 285 283 284 284 284 283 283 283
298 296 296 294 292 292 293 291 291 291 290 289 289 289 290 291 292 292 293 295 295 294 292 292 291 290 287 287 287 285 284 282 284 285 283 283 283 282 282 282 283 283 283
300 297 296 295 293 293 292 291 289 289 287 289 289 289 289 291 291 292 292 293 294 294 293 292 291 289 288 286 287 289 285 284 281 281 283 283 283 283 281 281 281 283 282
301 298 296 295 294 293 292 291 290 289 290 289 289 288 288 289 291 291 292 291 292 292 290 289 289 288 288 287 286 286 285 284 283 281 278 280 283 283 282 281 280 281 282
301 298 296 294 293 293 292 293 291 289 289 287 287 287 287 288 289 290 291 290 290 290 289 289 288 288 287 286 285 285 284 282 281 281 280 279 279 281 281 280 279 280 280
Wind_Speed
6 8 10 11 13 12 13 14 15 14 13 13 15 15 15 14 21 22 21 20 23 21 22 22 23 23 23 23 23 21 22 23 24 23 25 28 27 27 25 25 23 17 22
4 9 11 11 12 11 11 13 13 14 14 13 16 14 13 22 21 21 21 21 21 21 21 21 22 22 22 21 20 21 21 23 27 28 26 21 23 23 24 24 22 19 24
3 11 8 11 11 11 11 10 12 13 15 12 15 17 21 22 20 21 20 21 21 21 22 22 23 22 21 21 21 20 22 24 26 25 24 12 14 25 24 23 23 23 23
7 9 9 12 13 12 14 13 13 13 14 14 14 17 21 21 21 20 21 21 21 21 21 22 22 23 22 22 21 21 22 27 26 25 13 14 14 25 24 23 25 24 24
10 10 10 12 13 11 12 13 12 12 12 15 16 16 19 19 21 20 19 19 21 21 21 22 23 23 22 22 22 23 23 25 25 17 15 14 10 21 25 26 23 24 24
10 10 12 14 11 11 12 10 11 10 13 16 15 18 20 20 19 20 21 21 21 21 21 22 22 22 23 23 23 22 25 24 20 14 13 14 13 23 26 25 23 25 25
8 8 10 12 11 10 11 10 10 10 13 15 16 21 20 20 19 20 20 20 20 21 21 22 22 22 23 24 23 23 22 24 14 13 13 14 16 25 24 24 25 25 25
5 8 8 11 11 11 12 11 10 9 11 13 18 20 21 19 20 19 19 19 20 21 22 22 22 23 23 22 21 23 24 24 15 15 14 12 23 25 25 25 25 25 26
7 7 6 7 10 13 11 10 10 10 7 12 18 20 19 18 18 19 19 19 19 20 21 21 22 23 22 21 21 22 23 24 14 11 13 9 25 25 26 25 25 26 26
6 7 7 6 7 7 6 9 9 10 11 13 14 16 17 18 18 18 17 18 19 19 19 19 18 19 21 22 21 21 22 21 12 11 10 12 25 26 26 26 26 26 25
5 6 6 6 6 7 7 4 8 10 12 9 5 3 6 7 9 10 15 17 18 18 19 19 19 20 19 19 20 20 15 7 9 8 8 24 25 26 25 25 25 25 26
7 6 6 7 5 4 6 5 4 3 3 3 4 8 7 7 6 7 7 12 11 16 18 19 20 19 12 6 6 12 4 6 5 7 8 23 25 25 25 26 26 26 26
8 5 7 6 5 6 4 3 2 2 3 3 6 5 5 5 4 4 2 3 4 9 5 8 6 5 7 5 5 6 6 6 4 3 12 23 24 25 25 26 26 26 26
7 7 7 7 5 4 3 3 3 3 3 3 3 4 4 3 4 4 3 4 4 4 5 5 3 6 7 7 7 6 6 5 4 3 7 20 22 25 26 26 27 27 28
8 7 7 7 6 4 5 4 4 2 4 4 3 4 4 4 4 4 4 4 4 4 4 4 5 5 5 6 6 6 6 6 6 4 3 19 21 23 26 26 27 28 29
9 8 7 7 6 5 5 5 4 4 3 4 4 3 5 4 4 4 4 4 5 5 5 4 4 4 4 4 5 5 6 5 6 6 5 6 20 22 25 25 26 27 29
8 9 8 8 7 6 6 5 4 2 4 4 3 4 4 4 5 5 4 4 4 3 5 3 3 3 4 3 4 5 4 5 5 6 5 5 7 18 23 24 24 26 27
9 9 8 7 7 7 6 5 4 3 4 3 3 3 4 4 3 5 4 4 3 4 3 3 2 2 3 3 3 4 4 4 5 6 5 5 5 5 12 24 24 25 26
10 9 8 8 8 7 6 5 4 4 4 3 3 4 4 3 3 4 5 3 4 3 3 2 3 3 3 3 3 3 3 3 4 4 6 6 6 5 4 16 22 23 25
10 10 9 7 8 7 5 5 4 3 3 3 3 3 4 3 2 3 4 3 4 3 3 3 3 2 3 2 3 3 3 3 3 4 5 4 5 6 6 7 6 9 24
9 10 9 9 8 6 4 4 3 4 3 3 3 3 3 3 2 2 3 3 2 3 4 3 2 4 4 3 2 1 1 3 3 3 4 4 6 6 7 6 5 6 8
9 9 9 9 8 6 5 3 3 5 3 4 3 3 4 3 2 2 3 3 2 4 4 2 3 1 2 3 1 1 2 2 2 3 4 3 6 4 5 6 7 8 7
11 10 11 10 9 7 7 4 4 5 4 3 3 2 2 4 3 2 2 3 3 3 3 2 3 2 1 2 4 2 3 0 1 1 2 2 5 4 5 6 7 8 9
12 9 9 9 10 7 8 6 7 4 4 4 4 4 3 4 4 3 2 3 3 1 4 3 2 1 2 2 1 2 3 3 2 2 2 1 3 4 5 5 6 8 7
12 10 9 9 8 8 8 7 6 4 4 4 4 7 4 3 5 3 3 3 3 3 4 5 2 4 2 3 2 2 2 2 2 3 1 4 3 3 4 5 5 5 8
11 10 9 10 8 8 8 7 8 8 7 5 5 5 4 3 3 3 3 4 4 5 5 3 4 5 4 4 3 4 2 2 1 3 2 2 2 2 3 4 5 5 5
Wind_Direction
44 73 22 37 46 45 35 43 45 40 45 49 52 41 32 51 63 60 56 54 53 51 53 52 51 50 47 44 43 44 43 41 40 33 45 36 31 33 30 28 22 13 16
47 87 47 39 43 48 48 47 43 44 49 63 44 37 70 66 62 62 57 58 58 57 57 57 54 50 49 45 45 44 42 45 46 42 41 35 32 39 41 34 32 24 21
80 85 53 37 56 56 51 64 44 48 55 50 39 48 66 66 62 64 60 58 57 58 55 55 54 53 51 48 46 46 48 51 49 43 33 25 30 39 34 29 29 26 25
71 58 57 50 51 54 50 59 56 48 56 47 50 53 65 67 67 63 62 57 58 56 56 56 53 53 50 49 47 49 49 52 50 36 29 25 19 29 31 27 27 23 17
88 70 57 58 49 55 54 57 63 61 51 45 59 63 71 71 69 65 66 62 59 59 58 57 55 54 51 50 52 48 49 52 46 35 31 24 14 29 30 25 24 22 15
74 74 65 60 53 53 64 68 66 67 52 51 39 81 77 76 72 69 64 61 59 59 60 60 59 57 53 52 48 48 49 52 42 30 22 18 26 27 28 25 22 20 15
92 82 66 66 62 63 67 72 78 67 57 52 59 79 75 75 74 67 66 64 64 63 62 62 59 57 56 52 51 49 53 52 38 37 19 11 25 27 24 23 25 21 18
101 106 100 79 73 66 66 67 69 64 67 58 64 74 72 71 68 67 69 68 67 66 65 63 61 59 56 54 50 51 47 48 41 29 21 10 26 28 26 23 21 18 19
128 104 93 110 105 80 69 68 73 80 82 67 73 75 78 76 72 71 71 70 69 67 67 65 63 60 58 54 51 49 51 48 39 25 15 15 25 27 25 23 19 17 14
108 110 102 89 82 92 81 77 83 88 93 99 85 98 89 76 70 73 67 71 70 68 66 62 59 62 57 54 52 51 52 49 41 25 13 21 24 26 24 22 19 16 15
110 100 100 95 99 113 121 120 96 101 99 103 95 105 95 91 78 63 75 73 69 66 63 60 56 55 49 47 50 51 49 57 46 30 16 24 25 26 25 22 20 17 15
129 113 106 99 105 86 102 124 128 140 99 79 46 61 68 76 98 99 94 81 62 64 58 58 58 53 44 42 35 35 33 43 65 40 24 25 25 26 26 23 20 18 15
133 113 108 91 94 96 88 123 111 115 95 61 63 77 130 132 163 133 141 50 59 55 58 50 48 50 46 43 38 35 30 23 33 65 25 26 24 26 27 24 21 19 15
133 120 103 110 101 100 138 112 114 92 104 82 74 119 102 82 81 85 89 81 71 67 67 69 63 58 50 45 46 47 40 28 19 18 15 26 24 25 28 27 22 20 17
128 133 132 126 123 113 100 89 97 90 81 108 63 20 100 92 88 82 79 77 75 66 75 69 61 62 62 55 49 45 39 36 33 19 13 20 25 25 28 27 23 21 19
137 143 139 128 126 109 88 98 100 97 106 78 72 36 38 96 102 97 87 80 69 74 64 65 74 78 71 73 58 63 54 38 39 28 19 11 19 23 24 24 22 20 18
149 136 147 132 129 120 120 112 93 85 95 91 94 71 42 73 93 105 99 86 97 105 100 82 60 68 67 63 65 68 50 45 43 39 31 21 8 20 20 22 19 17 17
143 146 142 140 136 134 129 119 116 119 104 103 106 84 63 51 107 113 108 102 107 89 94 81 72 74 86 84 68 45 54 30 40 42 47 32 12 17 14 19 19 14 13
144 146 141 150 141 130 124 113 107 109 97 111 107 104 97 63 354 113 106 120 108 93 82 94 39 40 47 20 112 78 61 50 38 30 36 35 25 24 12 12 16 12 10
146 142 146 148 139 135 135 125 122 110 109 94 86 109 120 97 20 76 106 117 108 99 84 63 82 47 68 5 340 104 85 63 52 46 33 21 23 27 15 7 1 1 8
150 148 152 150 152 141 143 142 131 151 136 106 92 96 89 107 94 66 124 128 115 127 113 86 72 59 28 351 323 281 111 104 70 61 45 30 26 21 14 12 0 358 353
160 160 156 156 156 167 168 180 146 139 139 126 115 82 106 103 70 129 127 147 153 102 100 95 56 32 93 9 43 283 144 347 11 70 50 27 34 26 11 12 5 2 355
168 168 165 160 162 175 154 112 85 73 67 94 133 122 105 104 104 67 69 133 132 128 146 116 60 41 110 356 44 143 39 91 73 319 55 58 50 39 14 3 6 360 359
174 163 162 156 163 165 135 140 150 154 157 179 156 133 126 119 105 86 99 94 121 85 103 112 99 83 60 107 2 37 95 138 106 3 317 11 61 48 33 11 3 354 356
165 165 159 150 158 149 155 163 170 168 133 115 117 130 132 111 114 110 108 105 110 92 88 111 86 65 53 89 67 348 7 45 36 116 310 327 4 20 49 35 10 351 348
158 154 156 153 161 150 166 175 172 144 135 130 142 141 150 141 124 117 106 107 103 108 111 108 94 94 86 81 71 55 75 99 24 38 25 316 294 316 59 39 24 356 344